Year,Month,Day,Hour,Minute,Value (Times are PST for windgust in km/hr)
2016,10,04,00,00,17.70
2016,10,04,00,01,20.90
2016,10,04,00,02,17.70
2016,10,04,00,03,17.70
2016,10,04,00,04,16.10
2016,10,04,00,05,16.10
2016,10,04,00,06,14.50
2016,10,04,00,07,16.10
2016,10,04,00,08,16.10
2016,10,04,00,09,16.10
2016,10,04,00,10,16.10
2016,10,04,00,11,16.10
2016,10,04,00,12,16.10
2016,10,04,00,13,16.10
2016,10,04,00,14,16.10
2016,10,04,00,15,16.10
2016,10,04,00,16,16.10
2016,10,04,00,17,16.10
2016,10,04,00,18,17.70
2016,10,04,00,19,17.70
2016,10,04,00,20,16.10
2016,10,04,00,21,16.10
2016,10,04,00,22,14.50
2016,10,04,00,23,14.50
2016,10,04,00,24,14.50
2016,10,04,00,25,16.10
2016,10,04,00,26,16.10
2016,10,04,00,27,17.70
2016,10,04,00,28,17.70
2016,10,04,00,29,16.10
2016,10,04,00,30,14.50
2016,10,04,00,31,14.50
2016,10,04,00,32,12.90
2016,10,04,00,33,12.90
2016,10,04,00,34,12.90
2016,10,04,00,35,11.30
2016,10,04,00,36,11.30
2016,10,04,00,37,11.30
2016,10,04,00,38,11.30
2016,10,04,00,39,11.30
2016,10,04,00,40,11.30
2016,10,04,00,41,12.90
2016,10,04,00,42,11.30
2016,10,04,00,43,8.10
2016,10,04,00,44,8.10
2016,10,04,00,45,8.10
2016,10,04,00,46,8.10
2016,10,04,00,47,8.10
2016,10,04,00,48,8.10
2016,10,04,00,49,8.10
2016,10,04,00,50,11.30
2016,10,04,00,51,12.90
2016,10,04,00,52,12.90
2016,10,04,00,53,14.50
2016,10,04,00,54,12.90
2016,10,04,00,55,12.90
2016,10,04,00,56,12.90
2016,10,04,00,57,12.90
2016,10,04,00,58,12.90
2016,10,04,00,59,12.90
2016,10,04,01,00,14.50
2016,10,04,01,01,14.50
2016,10,04,01,02,14.50
2016,10,04,01,03,16.10
2016,10,04,01,04,17.70
2016,10,04,01,05,17.70
2016,10,04,01,06,17.70
2016,10,04,01,07,17.70
2016,10,04,01,08,17.70
2016,10,04,01,09,17.70
2016,10,04,01,10,20.90
2016,10,04,01,11,22.50
2016,10,04,01,12,22.50
2016,10,04,01,13,22.50
2016,10,04,01,14,22.50
2016,10,04,01,15,22.50
2016,10,04,01,16,20.90
2016,10,04,01,17,17.70
2016,10,04,01,18,17.70
2016,10,04,01,19,17.70
2016,10,04,01,20,17.70
2016,10,04,01,21,17.70
2016,10,04,01,22,17.70
2016,10,04,01,23,16.10
2016,10,04,01,24,16.10
2016,10,04,01,25,16.10
2016,10,04,01,26,14.50
2016,10,04,01,27,14.50
2016,10,04,01,28,14.50
2016,10,04,01,29,14.50
2016,10,04,01,30,12.90
2016,10,04,01,31,12.90
2016,10,04,01,32,12.90
2016,10,04,01,33,12.90
2016,10,04,01,34,12.90
2016,10,04,01,35,11.30
2016,10,04,01,36,8.10
2016,10,04,01,37,6.40
2016,10,04,01,38,4.80
2016,10,04,01,39,3.20
2016,10,04,01,40,3.20
2016,10,04,01,41,6.40
2016,10,04,01,42,6.40
2016,10,04,01,43,8.10
2016,10,04,01,44,9.60
2016,10,04,01,45,12.90
2016,10,04,01,46,11.30
2016,10,04,01,47,11.30
2016,10,04,01,48,11.30
2016,10,04,01,49,12.90
2016,10,04,01,50,12.90
2016,10,04,01,51,12.90
2016,10,04,01,52,14.50
2016,10,04,01,53,14.50
2016,10,04,01,54,14.50
2016,10,04,01,55,12.90
2016,10,04,01,56,12.90
2016,10,04,01,57,12.90
2016,10,04,01,58,8.10
2016,10,04,01,59,8.10
2016,10,04,02,00,8.10
2016,10,04,02,01,8.10
2016,10,04,02,02,8.10
2016,10,04,02,03,8.10
2016,10,04,02,04,9.60
2016,10,04,02,05,11.30
2016,10,04,02,06,11.30
2016,10,04,02,07,11.30
2016,10,04,02,08,11.30
2016,10,04,02,09,11.30
2016,10,04,02,10,9.60
2016,10,04,02,11,9.60
2016,10,04,02,12,8.10
2016,10,04,02,13,4.80
2016,10,04,02,14,3.20
2016,10,04,02,24,4.80
2016,10,04,02,25,6.40
2016,10,04,02,26,6.40
2016,10,04,02,27,6.40
2016,10,04,02,28,4.80
2016,10,04,02,29,4.80
2016,10,04,02,30,4.80
2016,10,04,02,31,4.80
2016,10,04,02,32,6.40
2016,10,04,02,33,6.40
2016,10,04,02,34,8.10
2016,10,04,02,35,8.10
2016,10,04,02,36,8.10
2016,10,04,02,37,8.10
2016,10,04,02,38,9.60
2016,10,04,02,39,11.30
2016,10,04,02,40,8.10
2016,10,04,02,41,8.10
2016,10,04,02,42,6.40
2016,10,04,02,43,6.40
2016,10,04,02,44,6.40
2016,10,04,02,45,6.40
2016,10,04,02,46,6.40
2016,10,04,02,47,6.40
2016,10,04,02,48,6.40
2016,10,04,02,49,6.40
2016,10,04,02,50,6.40
2016,10,04,02,51,6.40
2016,10,04,02,52,4.80
2016,10,04,02,53,4.80
2016,10,04,02,54,4.80
2016,10,04,02,55,4.80
2016,10,04,02,56,4.80
2016,10,04,02,57,4.80
2016,10,04,02,58,4.80
2016,10,04,02,59,6.40
2016,10,04,03,00,4.80
2016,10,04,03,01,4.80
2016,10,04,03,02,4.80
2016,10,04,03,03,4.80
2016,10,04,03,04,4.80
2016,10,04,03,05,3.20
2016,10,04,03,06,4.80
2016,10,04,03,07,3.20
2016,10,04,03,08,3.20
2016,10,04,03,09,3.20
2016,10,04,03,18,4.80
2016,10,04,03,19,6.40
2016,10,04,03,20,6.40
2016,10,04,03,21,6.40
2016,10,04,03,22,6.40
2016,10,04,03,23,6.40
2016,10,04,03,24,8.10
2016,10,04,03,25,8.10
2016,10,04,03,26,8.10
2016,10,04,03,27,8.10
2016,10,04,03,28,8.10
2016,10,04,03,29,8.10
2016,10,04,03,30,11.30
2016,10,04,03,31,12.90
2016,10,04,03,32,12.90
2016,10,04,03,33,11.30
2016,10,04,03,34,9.60
2016,10,04,03,35,9.60
2016,10,04,03,36,8.10
2016,10,04,03,37,4.80
2016,10,04,03,38,3.20
2016,10,04,03,39,3.20
2016,10,04,03,40,1.60
2016,10,04,03,44,4.80
2016,10,04,03,45,4.80
2016,10,04,03,46,4.80
2016,10,04,03,47,4.80
2016,10,04,03,48,4.80
2016,10,04,03,49,4.80
2016,10,04,03,50,4.80
2016,10,04,03,51,4.80
2016,10,04,03,52,4.80
2016,10,04,03,53,4.80
2016,10,04,03,54,3.20
2016,10,04,03,55,1.60
2016,10,04,04,11,3.20
2016,10,04,04,12,3.20
2016,10,04,04,13,3.20
2016,10,04,04,14,3.20
2016,10,04,04,15,3.20
2016,10,04,04,16,3.20
2016,10,04,04,17,1.60
2016,10,04,04,23,4.80
2016,10,04,04,24,4.80
2016,10,04,04,25,6.40
2016,10,04,04,26,6.40
2016,10,04,04,27,8.10
2016,10,04,04,28,8.10
2016,10,04,04,29,9.60
2016,10,04,04,30,9.60
2016,10,04,04,31,11.30
2016,10,04,04,32,11.30
2016,10,04,04,33,11.30
2016,10,04,04,34,11.30
2016,10,04,04,35,11.30
2016,10,04,04,36,11.30
2016,10,04,04,37,11.30
2016,10,04,04,38,9.60
2016,10,04,04,39,9.60
2016,10,04,04,40,11.30
2016,10,04,04,41,11.30
2016,10,04,04,42,11.30
2016,10,04,04,43,11.30
2016,10,04,04,44,11.30
2016,10,04,04,45,11.30
2016,10,04,04,46,9.60
2016,10,04,04,47,9.60
2016,10,04,04,48,9.60
2016,10,04,04,49,8.10
2016,10,04,04,50,8.10
2016,10,04,04,51,6.40
2016,10,04,04,52,4.80
2016,10,04,04,53,3.20
2016,10,04,04,54,3.20
2016,10,04,04,55,3.20
2016,10,04,04,56,3.20
2016,10,04,04,57,3.20
2016,10,04,04,58,4.80
2016,10,04,04,59,6.40
2016,10,04,05,00,8.10
2016,10,04,05,01,8.10
2016,10,04,05,02,8.10
2016,10,04,05,03,8.10
2016,10,04,05,04,8.10
2016,10,04,05,05,8.10
2016,10,04,05,06,8.10
2016,10,04,05,07,8.10
2016,10,04,05,08,9.60
2016,10,04,05,09,9.60
2016,10,04,05,10,9.60
2016,10,04,05,11,9.60
2016,10,04,05,12,9.60
2016,10,04,05,13,9.60
2016,10,04,05,14,8.10
2016,10,04,05,15,6.40
2016,10,04,05,16,6.40
2016,10,04,05,17,6.40
2016,10,04,05,18,6.40
2016,10,04,05,19,6.40
2016,10,04,05,20,6.40
2016,10,04,05,21,4.80
2016,10,04,05,22,6.40
2016,10,04,05,23,6.40
2016,10,04,05,24,6.40
2016,10,04,05,25,6.40
2016,10,04,05,26,6.40
2016,10,04,05,27,6.40
2016,10,04,05,28,6.40
2016,10,04,05,29,4.80
2016,10,04,05,30,4.80
2016,10,04,05,31,3.20
2016,10,04,05,32,1.60
2016,10,04,05,34,1.60
2016,10,04,05,38,4.80
2016,10,04,05,39,4.80
2016,10,04,05,40,6.40
2016,10,04,05,41,8.10
2016,10,04,05,42,8.10
2016,10,04,05,43,6.40
2016,10,04,05,44,6.40
2016,10,04,05,45,6.40
2016,10,04,05,46,6.40
2016,10,04,05,47,4.80
2016,10,04,05,48,4.80
2016,10,04,05,49,4.80
2016,10,04,05,50,4.80
2016,10,04,05,51,4.80
2016,10,04,05,52,6.40
2016,10,04,05,53,6.40
2016,10,04,05,54,6.40
2016,10,04,05,55,6.40
2016,10,04,05,56,6.40
2016,10,04,05,57,6.40
2016,10,04,05,58,6.40
2016,10,04,05,59,6.40
2016,10,04,06,00,6.40
2016,10,04,06,01,8.10
2016,10,04,06,02,8.10
2016,10,04,06,03,8.10
2016,10,04,06,04,6.40
2016,10,04,06,05,6.40
2016,10,04,06,06,6.40
2016,10,04,06,07,6.40
2016,10,04,06,08,6.40
2016,10,04,06,09,6.40
2016,10,04,06,10,6.40
2016,10,04,06,11,8.10
2016,10,04,06,12,8.10
2016,10,04,06,13,8.10
2016,10,04,06,14,8.10
2016,10,04,06,15,6.40
2016,10,04,06,16,8.10
2016,10,04,06,17,8.10
2016,10,04,06,18,6.40
2016,10,04,06,19,6.40
2016,10,04,06,20,8.10
2016,10,04,06,21,9.60
2016,10,04,06,22,9.60
2016,10,04,06,23,9.60
2016,10,04,06,24,9.60
2016,10,04,06,25,9.60
2016,10,04,06,26,8.10
2016,10,04,06,27,8.10
2016,10,04,06,28,9.60
2016,10,04,06,29,9.60
2016,10,04,06,30,11.30
2016,10,04,06,31,11.30
2016,10,04,06,32,9.60
2016,10,04,06,33,9.60
2016,10,04,06,34,9.60
2016,10,04,06,35,9.60
2016,10,04,06,36,9.60
2016,10,04,06,37,9.60
2016,10,04,06,38,11.30
2016,10,04,06,39,11.30
2016,10,04,06,40,11.30
2016,10,04,06,41,9.60
2016,10,04,06,42,11.30
2016,10,04,06,43,9.60
2016,10,04,06,44,9.60
2016,10,04,06,45,9.60
2016,10,04,06,46,9.60
2016,10,04,06,47,9.60
2016,10,04,06,48,9.60
2016,10,04,06,49,11.30
2016,10,04,06,50,11.30
2016,10,04,06,51,12.90
2016,10,04,06,52,12.90
2016,10,04,06,53,12.90
2016,10,04,06,54,12.90
2016,10,04,06,55,12.90
2016,10,04,06,56,14.50
2016,10,04,06,57,14.50
2016,10,04,06,58,14.50
2016,10,04,06,59,14.50
2016,10,04,07,00,14.50
2016,10,04,07,01,14.50
2016,10,04,07,02,14.50
2016,10,04,07,03,14.50
2016,10,04,07,04,16.10
2016,10,04,07,05,16.10
2016,10,04,07,06,16.10
2016,10,04,07,07,14.50
2016,10,04,07,08,14.50
2016,10,04,07,09,16.10
2016,10,04,07,10,16.10
2016,10,04,07,11,16.10
2016,10,04,07,12,16.10
2016,10,04,07,13,16.10
2016,10,04,07,14,16.10
2016,10,04,07,15,16.10
2016,10,04,07,16,17.70
2016,10,04,07,17,17.70
2016,10,04,07,18,19.30
2016,10,04,07,19,19.30
2016,10,04,07,20,19.30
2016,10,04,07,21,17.70
2016,10,04,07,22,19.30
2016,10,04,07,23,17.70
2016,10,04,07,24,16.10
2016,10,04,07,25,16.10
2016,10,04,07,26,16.10
2016,10,04,07,27,16.10
2016,10,04,07,28,17.70
2016,10,04,07,29,17.70
2016,10,04,07,30,19.30
2016,10,04,07,31,19.30
2016,10,04,07,32,19.30
2016,10,04,07,33,19.30
2016,10,04,07,34,19.30
2016,10,04,07,35,17.70
2016,10,04,07,36,17.70
2016,10,04,07,37,17.70
2016,10,04,07,38,17.70
2016,10,04,07,39,17.70
2016,10,04,07,40,17.70
2016,10,04,07,41,17.70
2016,10,04,07,42,19.30
2016,10,04,07,43,19.30
2016,10,04,07,44,19.30
2016,10,04,07,45,19.30
2016,10,04,07,46,17.70
2016,10,04,07,47,19.30
2016,10,04,07,48,19.30
2016,10,04,07,49,19.30
2016,10,04,07,50,17.70
2016,10,04,07,51,17.70
2016,10,04,07,52,17.70
2016,10,04,07,53,17.70
2016,10,04,07,54,17.70
2016,10,04,07,55,17.70
2016,10,04,07,56,19.30
2016,10,04,07,57,17.70
2016,10,04,07,58,19.30
2016,10,04,07,59,19.30
2016,10,04,08,00,19.30
2016,10,04,08,01,19.30
2016,10,04,08,02,19.30
2016,10,04,08,03,19.30
2016,10,04,08,04,19.30
2016,10,04,08,05,17.70
2016,10,04,08,06,17.70
2016,10,04,08,07,17.70
2016,10,04,08,08,19.30
2016,10,04,08,09,17.70
2016,10,04,08,10,16.10
2016,10,04,08,11,17.70
2016,10,04,08,12,17.70
2016,10,04,08,13,16.10
2016,10,04,08,14,14.50
2016,10,04,08,15,14.50
2016,10,04,08,16,14.50
2016,10,04,08,17,14.50
2016,10,04,08,18,16.10
2016,10,04,08,19,16.10
2016,10,04,08,20,16.10
2016,10,04,08,21,14.50
2016,10,04,08,22,14.50
2016,10,04,08,23,14.50
2016,10,04,08,24,14.50
2016,10,04,08,25,14.50
2016,10,04,08,26,16.10
2016,10,04,08,27,16.10
2016,10,04,08,28,16.10
2016,10,04,08,29,17.70
2016,10,04,08,30,16.10
2016,10,04,08,31,14.50
2016,10,04,08,32,14.50
2016,10,04,08,33,16.10
2016,10,04,08,34,16.10
2016,10,04,08,35,16.10
2016,10,04,08,36,16.10
2016,10,04,08,37,14.50
2016,10,04,08,38,14.50
2016,10,04,08,39,14.50
2016,10,04,08,40,14.50
2016,10,04,08,41,14.50
2016,10,04,08,42,14.50
2016,10,04,08,43,14.50
2016,10,04,08,44,14.50
2016,10,04,08,45,14.50
2016,10,04,08,46,14.50
2016,10,04,08,47,14.50
2016,10,04,08,48,12.90
2016,10,04,08,49,14.50
2016,10,04,08,50,12.90
2016,10,04,08,51,12.90
2016,10,04,08,52,12.90
2016,10,04,08,53,11.30
2016,10,04,08,54,12.90
2016,10,04,08,55,12.90
2016,10,04,08,56,12.90
2016,10,04,08,57,12.90
2016,10,04,08,58,12.90
2016,10,04,08,59,12.90
2016,10,04,09,00,12.90
2016,10,04,09,01,12.90
2016,10,04,09,02,12.90
2016,10,04,09,03,14.50
2016,10,04,09,04,12.90
2016,10,04,09,05,14.50
2016,10,04,09,06,12.90
2016,10,04,09,07,12.90
2016,10,04,09,08,12.90
2016,10,04,09,09,12.90
2016,10,04,09,10,11.30
2016,10,04,09,11,11.30
2016,10,04,09,12,8.10
2016,10,04,09,13,12.90
2016,10,04,09,14,12.90
2016,10,04,09,15,12.90
2016,10,04,09,16,12.90
2016,10,04,09,17,11.30
2016,10,04,09,18,12.90
2016,10,04,09,19,14.50
2016,10,04,09,20,14.50
2016,10,04,09,21,14.50
2016,10,04,09,22,16.10
2016,10,04,09,23,16.10
2016,10,04,09,24,17.70
2016,10,04,09,25,17.70
2016,10,04,09,26,17.70
2016,10,04,09,27,17.70
2016,10,04,09,28,17.70
2016,10,04,09,29,19.30
2016,10,04,09,30,17.70
2016,10,04,09,31,17.70
2016,10,04,09,32,17.70
2016,10,04,09,33,19.30
2016,10,04,09,34,19.30
2016,10,04,09,35,19.30
2016,10,04,09,36,19.30
2016,10,04,09,37,19.30
2016,10,04,09,38,19.30
2016,10,04,09,39,17.70
2016,10,04,09,40,17.70
2016,10,04,09,41,17.70
2016,10,04,09,42,17.70
2016,10,04,09,43,16.10
2016,10,04,09,44,17.70
2016,10,04,09,45,17.70
2016,10,04,09,46,17.70
2016,10,04,09,47,19.30
2016,10,04,09,48,19.30
2016,10,04,09,49,20.90
2016,10,04,09,50,19.30
2016,10,04,09,51,19.30
2016,10,04,09,52,20.90
2016,10,04,09,53,20.90
2016,10,04,09,54,20.90
2016,10,04,09,55,20.90
2016,10,04,09,56,20.90
2016,10,04,09,57,22.50
2016,10,04,09,58,22.50
2016,10,04,09,59,22.50
2016,10,04,10,00,22.50
2016,10,04,10,01,22.50
2016,10,04,10,02,22.50
2016,10,04,10,03,22.50
2016,10,04,10,04,22.50
2016,10,04,10,05,22.50
2016,10,04,10,06,22.50
2016,10,04,11,06,19.30
2016,10,04,11,07,17.70
2016,10,04,11,08,17.70
2016,10,04,11,09,17.70
2016,10,04,11,10,17.70
2016,10,04,11,11,16.10
2016,10,04,11,12,17.70
2016,10,04,11,13,16.10
2016,10,04,11,14,16.10
2016,10,04,11,15,16.10
2016,10,04,11,16,16.10
2016,10,04,11,17,16.10
2016,10,04,11,18,17.70
2016,10,04,11,19,17.70
2016,10,04,11,20,17.70
2016,10,04,11,21,17.70
2016,10,04,11,22,17.70
2016,10,04,11,23,17.70
2016,10,04,11,24,17.70
2016,10,04,11,25,19.30
2016,10,04,11,26,19.30
2016,10,04,11,27,17.70
2016,10,04,11,28,17.70
2016,10,04,11,29,16.10
2016,10,04,11,30,16.10
2016,10,04,11,31,14.50
2016,10,04,11,32,14.50
2016,10,04,11,33,14.50
2016,10,04,11,34,14.50
2016,10,04,11,35,14.50
2016,10,04,11,36,12.90
2016,10,04,11,37,12.90
2016,10,04,11,38,12.90
2016,10,04,11,39,12.90
2016,10,04,11,40,12.90
2016,10,04,11,41,12.90
2016,10,04,11,42,14.50
2016,10,04,11,43,11.30
2016,10,04,11,44,12.90
2016,10,04,11,45,12.90
2016,10,04,11,46,12.90
2016,10,04,11,47,12.90
2016,10,04,11,48,12.90
2016,10,04,11,49,14.50
2016,10,04,11,50,14.50
2016,10,04,11,51,14.50
2016,10,04,11,52,16.10
2016,10,04,11,53,16.10
2016,10,04,11,54,16.10
2016,10,04,11,55,16.10
2016,10,04,11,56,17.70
2016,10,04,11,57,16.10
2016,10,04,11,58,17.70
2016,10,04,11,59,17.70
2016,10,04,12,00,17.70
2016,10,04,12,01,16.10
2016,10,04,12,02,16.10
2016,10,04,12,03,16.10
2016,10,04,12,04,17.70
2016,10,04,12,05,17.70
2016,10,04,12,06,17.70
2016,10,04,12,07,17.70
2016,10,04,12,08,17.70
2016,10,04,12,09,19.30
2016,10,04,12,10,17.70
2016,10,04,12,11,17.70
2016,10,04,12,12,20.90
2016,10,04,12,13,20.90
2016,10,04,12,14,22.50
2016,10,04,12,15,20.90
2016,10,04,12,16,22.50
2016,10,04,12,17,22.50
2016,10,04,12,18,22.50
2016,10,04,12,19,24.20
2016,10,04,12,20,22.50
2016,10,04,12,21,24.20
2016,10,04,12,22,24.20
2016,10,04,12,23,24.20
2016,10,04,12,24,24.20
2016,10,04,12,25,24.20
2016,10,04,12,26,22.50
2016,10,04,12,27,24.20
2016,10,04,12,28,22.50
2016,10,04,12,29,22.50
2016,10,04,12,30,22.50
2016,10,04,12,31,20.90
2016,10,04,12,32,20.90
2016,10,04,12,33,20.90
2016,10,04,12,34,20.90
2016,10,04,12,35,22.50
2016,10,04,12,36,20.90
2016,10,04,12,37,20.90
2016,10,04,12,38,20.90
2016,10,04,12,39,20.90
2016,10,04,12,40,22.50
2016,10,04,12,41,20.90
2016,10,04,12,42,22.50
2016,10,04,12,43,20.90
2016,10,04,12,44,20.90
2016,10,04,12,45,20.90
2016,10,04,12,46,20.90
2016,10,04,12,47,20.90
2016,10,04,12,48,19.30
2016,10,04,12,49,19.30
2016,10,04,12,50,19.30
2016,10,04,12,51,17.70
2016,10,04,12,52,16.10
2016,10,04,12,53,16.10
2016,10,04,12,54,16.10
2016,10,04,12,55,14.50
2016,10,04,12,56,12.90
2016,10,04,12,57,12.90
2016,10,04,12,58,12.90
2016,10,04,12,59,12.90
2016,10,04,13,00,11.30
2016,10,04,13,01,12.90
2016,10,04,13,02,12.90
2016,10,04,13,03,12.90
2016,10,04,13,04,12.90
2016,10,04,13,05,14.50
2016,10,04,13,06,11.30
2016,10,04,13,07,12.90
2016,10,04,13,08,12.90
2016,10,04,13,09,12.90
2016,10,04,13,10,12.90
2016,10,04,13,11,14.50
2016,10,04,13,12,14.50
2016,10,04,13,13,14.50
2016,10,04,13,14,14.50
2016,10,04,13,15,14.50
2016,10,04,13,16,14.50
2016,10,04,13,17,14.50
2016,10,04,13,18,14.50
2016,10,04,13,19,14.50
2016,10,04,13,20,14.50
2016,10,04,13,21,16.10
2016,10,04,13,22,14.50
2016,10,04,13,23,14.50
2016,10,04,13,24,14.50
2016,10,04,13,25,14.50
2016,10,04,13,26,14.50
2016,10,04,13,27,14.50
2016,10,04,13,28,14.50
2016,10,04,13,29,12.90
2016,10,04,13,30,12.90
2016,10,04,13,31,12.90
2016,10,04,13,32,12.90
2016,10,04,13,33,11.30
2016,10,04,13,34,11.30
2016,10,04,13,35,11.30
2016,10,04,13,36,9.60
2016,10,04,13,37,11.30
2016,10,04,13,38,11.30
2016,10,04,13,39,11.30
2016,10,04,13,40,11.30
2016,10,04,13,41,11.30
2016,10,04,13,42,11.30
2016,10,04,13,43,11.30
2016,10,04,13,44,9.60
2016,10,04,13,45,9.60
2016,10,04,13,46,11.30
2016,10,04,13,47,11.30
2016,10,04,13,48,11.30
2016,10,04,13,49,11.30
2016,10,04,13,50,11.30
2016,10,04,13,51,9.60
2016,10,04,13,52,9.60
2016,10,04,13,53,9.60
2016,10,04,13,54,8.10
2016,10,04,13,55,8.10
2016,10,04,13,56,8.10
2016,10,04,13,57,6.40
2016,10,04,13,58,6.40
2016,10,04,13,59,6.40
2016,10,04,14,00,6.40
2016,10,04,14,01,4.80
2016,10,04,14,02,6.40
2016,10,04,14,03,4.80
2016,10,04,14,04,6.40
2016,10,04,14,05,6.40
2016,10,04,14,06,6.40
2016,10,04,14,07,6.40
2016,10,04,14,08,6.40
2016,10,04,14,09,6.40
2016,10,04,14,10,6.40
2016,10,04,14,11,6.40
2016,10,04,14,12,6.40
2016,10,04,14,13,4.80
2016,10,04,14,14,6.40
2016,10,04,14,15,6.40
2016,10,04,14,16,6.40
2016,10,04,14,17,8.10
2016,10,04,14,18,8.10
2016,10,04,14,19,8.10
2016,10,04,14,20,11.30
2016,10,04,14,21,8.10
2016,10,04,14,22,8.10
2016,10,04,14,23,6.40
2016,10,04,14,24,4.80
2016,10,04,14,25,4.80
2016,10,04,14,26,4.80
2016,10,04,14,27,4.80
2016,10,04,14,28,6.40
2016,10,04,14,29,8.10
2016,10,04,14,30,8.10
2016,10,04,14,31,8.10
2016,10,04,14,32,6.40
2016,10,04,14,33,6.40
2016,10,04,14,34,8.10
2016,10,04,14,35,11.30
2016,10,04,14,36,11.30
2016,10,04,14,37,8.10
2016,10,04,14,38,8.10
2016,10,04,14,39,8.10
2016,10,04,14,40,11.30
2016,10,04,14,41,8.10
2016,10,04,14,42,11.30
2016,10,04,14,43,11.30
2016,10,04,14,44,12.90
2016,10,04,14,45,12.90
2016,10,04,14,46,12.90
2016,10,04,14,47,14.50
2016,10,04,14,48,16.10
2016,10,04,14,49,16.10
2016,10,04,14,50,16.10
2016,10,04,14,51,16.10
2016,10,04,14,52,14.50
2016,10,04,14,53,16.10
2016,10,04,14,54,16.10
2016,10,04,14,55,16.10
2016,10,04,14,56,16.10
2016,10,04,14,57,17.70
2016,10,04,14,58,17.70
2016,10,04,14,59,17.70
2016,10,04,15,00,14.50
2016,10,04,15,01,11.30
2016,10,04,15,02,14.50
2016,10,04,15,03,14.50
2016,10,04,15,04,11.30
2016,10,04,15,05,11.30
2016,10,04,15,06,11.30
2016,10,04,15,07,14.50
2016,10,04,15,08,16.10
2016,10,04,15,09,14.50
2016,10,04,15,10,14.50
2016,10,04,15,11,14.50
2016,10,04,15,12,12.90
2016,10,04,15,13,12.90
2016,10,04,15,14,11.30
2016,10,04,15,15,11.30
2016,10,04,15,16,12.90
2016,10,04,15,17,12.90
2016,10,04,15,18,12.90
2016,10,04,15,19,14.50
2016,10,04,15,20,14.50
2016,10,04,15,21,14.50
2016,10,04,15,22,14.50
2016,10,04,15,23,14.50
2016,10,04,15,24,16.10
2016,10,04,15,25,14.50
2016,10,04,15,26,14.50
2016,10,04,15,27,12.90
2016,10,04,15,28,12.90
2016,10,04,15,29,12.90
2016,10,04,15,30,11.30
2016,10,04,15,31,11.30
2016,10,04,15,32,11.30
2016,10,04,15,33,12.90
2016,10,04,15,34,12.90
2016,10,04,15,35,12.90
2016,10,04,15,36,14.50
2016,10,04,15,37,16.10
2016,10,04,15,38,16.10
2016,10,04,15,39,16.10
2016,10,04,15,40,16.10
2016,10,04,15,41,16.10
2016,10,04,15,42,16.10
2016,10,04,15,43,17.70
2016,10,04,15,44,17.70
2016,10,04,15,45,17.70
2016,10,04,15,46,17.70
2016,10,04,15,47,17.70
2016,10,04,15,48,17.70
2016,10,04,15,49,16.10
2016,10,04,15,50,16.10
2016,10,04,15,51,14.50
2016,10,04,15,52,16.10
2016,10,04,15,53,14.50
2016,10,04,15,54,14.50
2016,10,04,15,55,14.50
2016,10,04,15,56,14.50
2016,10,04,15,57,14.50
2016,10,04,15,58,12.90
2016,10,04,15,59,12.90
2016,10,04,16,00,12.90
2016,10,04,16,01,12.90
2016,10,04,16,02,11.30
2016,10,04,16,03,9.60
2016,10,04,16,04,9.60
2016,10,04,16,05,8.10
2016,10,04,16,06,8.10
2016,10,04,16,07,6.40
2016,10,04,16,08,6.40
2016,10,04,16,09,8.10
2016,10,04,16,10,6.40
2016,10,04,16,11,6.40
2016,10,04,16,12,6.40
2016,10,04,16,13,6.40
2016,10,04,16,14,6.40
2016,10,04,16,15,6.40
2016,10,04,16,16,6.40
2016,10,04,16,17,6.40
2016,10,04,16,18,4.80
2016,10,04,16,19,4.80
2016,10,04,16,20,4.80
2016,10,04,16,21,4.80
2016,10,04,16,22,3.20
2016,10,04,16,23,1.60
2016,10,04,16,26,1.60
2016,10,04,16,27,1.60
2016,10,04,16,44,8.10
2016,10,04,16,45,12.90
2016,10,04,16,46,12.90
2016,10,04,16,47,11.30
2016,10,04,16,48,8.10
2016,10,04,16,49,6.40
2016,10,04,16,50,6.40
2016,10,04,16,51,11.30
2016,10,04,16,52,14.50
2016,10,04,16,53,14.50
2016,10,04,16,54,12.90
2016,10,04,16,55,11.30
2016,10,04,16,56,8.10
2016,10,04,16,57,16.10
2016,10,04,16,58,17.70
2016,10,04,16,59,17.70
2016,10,04,17,00,16.10
2016,10,04,17,01,12.90
2016,10,04,17,02,12.90
2016,10,04,17,03,16.10
2016,10,04,17,04,16.10
2016,10,04,17,05,14.50
2016,10,04,17,06,14.50
2016,10,04,17,07,14.50
2016,10,04,17,08,14.50
2016,10,04,17,09,16.10
2016,10,04,17,10,16.10
2016,10,04,17,11,16.10
2016,10,04,17,12,16.10
2016,10,04,17,13,17.70
2016,10,04,17,14,16.10
2016,10,04,17,15,16.10
2016,10,04,17,16,16.10
2016,10,04,17,17,16.10
2016,10,04,17,18,16.10
2016,10,04,17,19,16.10
2016,10,04,17,20,12.90
2016,10,04,17,21,12.90
2016,10,04,17,22,12.90
2016,10,04,17,23,12.90
2016,10,04,17,24,12.90
2016,10,04,17,25,14.50
2016,10,04,17,26,14.50
2016,10,04,17,27,14.50
2016,10,04,17,28,16.10
2016,10,04,17,29,19.30
2016,10,04,17,30,16.10
2016,10,04,17,31,17.70
2016,10,04,17,32,16.10
2016,10,04,17,33,14.50
2016,10,04,17,34,16.10
2016,10,04,17,35,16.10
2016,10,04,17,36,17.70
2016,10,04,17,37,19.30
2016,10,04,17,38,16.10
2016,10,04,17,39,17.70
2016,10,04,17,40,17.70
2016,10,04,17,41,16.10
2016,10,04,17,42,16.10
2016,10,04,17,43,17.70
2016,10,04,17,44,16.10
2016,10,04,17,45,16.10
2016,10,04,17,46,16.10
2016,10,04,17,47,17.70
2016,10,04,17,48,17.70
2016,10,04,17,49,16.10
2016,10,04,17,50,17.70
2016,10,04,17,51,17.70
2016,10,04,17,52,17.70
2016,10,04,17,53,17.70
2016,10,04,17,54,14.50
2016,10,04,17,55,16.10
2016,10,04,17,56,16.10
2016,10,04,17,57,16.10
2016,10,04,17,58,16.10
2016,10,04,17,59,16.10
2016,10,04,18,00,17.70
2016,10,04,18,01,17.70
2016,10,04,18,02,17.70
2016,10,04,18,03,19.30
2016,10,04,18,04,19.30
2016,10,04,18,05,19.30
2016,10,04,18,06,19.30
2016,10,04,18,07,19.30
2016,10,04,18,08,19.30
2016,10,04,18,09,19.30
2016,10,04,18,10,19.30
2016,10,04,18,11,20.90
2016,10,04,18,12,20.90
2016,10,04,18,13,22.50
2016,10,04,18,14,24.20
2016,10,04,18,15,20.90
2016,10,04,18,16,24.20
2016,10,04,18,17,22.50
2016,10,04,18,18,24.20
2016,10,04,18,19,25.70
2016,10,04,18,20,25.70
2016,10,04,18,21,27.40
2016,10,04,18,22,25.70
2016,10,04,18,23,29.00
2016,10,04,18,24,32.20
2016,10,04,18,25,32.20
2016,10,04,18,26,32.20
2016,10,04,18,27,33.80
2016,10,04,18,28,35.40
2016,10,04,18,29,35.40
2016,10,04,18,30,35.40
2016,10,04,18,31,33.80
2016,10,04,18,32,35.40
2016,10,04,18,33,35.40
2016,10,04,18,34,35.40
2016,10,04,18,35,32.20
2016,10,04,18,36,30.60
2016,10,04,18,37,32.20
2016,10,04,18,38,32.20
2016,10,04,18,39,30.60
2016,10,04,18,40,33.80
2016,10,04,18,41,33.80
2016,10,04,18,42,33.80
2016,10,04,18,43,30.60
2016,10,04,18,44,30.60
2016,10,04,18,45,29.00
2016,10,04,18,46,29.00
2016,10,04,18,47,27.40
2016,10,04,18,48,27.40
2016,10,04,18,49,27.40
2016,10,04,18,50,27.40
2016,10,04,18,51,27.40
2016,10,04,18,52,25.70
2016,10,04,18,53,25.70
2016,10,04,18,54,25.70
2016,10,04,18,55,24.20
2016,10,04,18,56,24.20
2016,10,04,18,57,22.50
2016,10,04,18,58,22.50
2016,10,04,18,59,20.90
2016,10,04,19,00,20.90
2016,10,04,19,01,20.90
2016,10,04,19,02,20.90
2016,10,04,19,03,20.90
2016,10,04,19,04,20.90
2016,10,04,19,05,20.90
2016,10,04,19,06,20.90
2016,10,04,19,07,17.70
2016,10,04,19,08,17.70
2016,10,04,19,09,17.70
2016,10,04,19,10,17.70
2016,10,04,19,11,17.70
2016,10,04,19,12,17.70
2016,10,04,19,13,14.50
2016,10,04,19,14,14.50
2016,10,04,19,15,14.50
2016,10,04,19,16,14.50
2016,10,04,19,17,14.50
2016,10,04,19,18,14.50
2016,10,04,19,19,16.10
2016,10,04,19,20,16.10
2016,10,04,19,21,17.70
2016,10,04,19,22,16.10
2016,10,04,19,23,17.70
2016,10,04,19,24,17.70
2016,10,04,19,25,17.70
2016,10,04,19,26,19.30
2016,10,04,19,27,19.30
2016,10,04,19,28,17.70
2016,10,04,19,29,17.70
2016,10,04,19,30,16.10
2016,10,04,19,31,14.50
2016,10,04,19,32,12.90
2016,10,04,19,33,11.30
2016,10,04,19,34,11.30